Home > Weather > Skien > Past weeks

Flag for Norway Past Weather in Skien, Norway — Yesterday and Last 2 Weeks

Now
54 °F

Scattered clouds.


Feels Like: 54 °F
Forecast: 49 / 61 °F
Wind: 2 mph from North

Location: Torp

Current Time: Jul 1, 2016 at 6:33:38 AM

Latest Report: Jul 1, 2016 at 5:50 AM


Visibility: N/A

Pressure: 29.74 "Hg

Humidity: 100%

Dew Point: 54 °F

Location of SkienLocation

Past Weather in Skien — Graph

°F

Skien Temperature Yesterday

Maximum temperature yesterday: 63 °F (at 2:50 PM)
Minimum temperature yesterday: 54 °F (at 7:50 AM)
Average temperature yesterday: 58 °F

High & Low Weather Summary for the Past Weeks

 TemperatureHumidityPressure
High73 °F (Jun 16, 3:50 PM)100% (Jun 16, 5:20 AM)30.18 "Hg (Jun 16, 5:20 AM)
Low50 °F (Jun 19, 8:20 AM)41% (Jun 16, 2:20 PM)29.56 "Hg (Jun 16, 6:20 PM)
Average60 °F89%29.83 "Hg
* Reported Jun 16 5:20 AM — Jul 1 5:20 AM, Skien, Weather by CustomWeather, © 2016

Note: Actual official high and low records may vary slightly from our data, if they occured in-between our weather recording intervals... More about our weather records

Advertising

Skien Weather History for the Previous 24 Hours

Scroll right to see more
 ConditionsComfort  
Time TempWeatherWind HumidityBarometerVisibility
5:20 AM
Fri, Jul 1
54 °FScattered clouds.2 mph100%29.74 "HgN/A
4:50 AM54 °FPassing clouds.2 mph100%29.74 "HgN/A
4:20 AM54 °FOvercast.5 mph100%29.74 "HgN/A
3:50 AM55 °FPassing clouds.7 mph94%29.74 "HgN/A
3:20 AM55 °FMostly cloudy.7 mph94%29.74 "HgN/A
2:50 AM54 °FPassing clouds.8 mph100%29.74 "HgN/A
2:20 AM54 °FPassing clouds.7 mph100%29.74 "HgN/A
1:50 AM54 °FPassing clouds.8 mph100%29.77 "HgN/A
1:20 AM54 °FPassing clouds.8 mph100%29.77 "HgN/A
12:50 AM54 °FPassing clouds.8 mph100%29.77 "HgN/A
12:20 AM55 °FCool.10 mph94%29.77 "HgN/A
11:50 PM
Thu, Jun 30
55 °FCool.8 mph94%29.74 "HgN/A
11:20 PM55 °FCool.12 mph94%29.74 "HgN/A
10:50 PM55 °FSunny.14 mph94%29.74 "Hg10 mi
10:20 PM57 °FSunny.15 mph94%29.74 "Hg10 mi
9:50 PM57 °FScattered clouds.14 mph94%29.74 "HgN/A
9:20 PM57 °FScattered clouds.16 mph88%29.74 "HgN/A
8:50 PM59 °FPassing clouds.17 mph88%29.71 "HgN/A
8:20 PM59 °FPassing clouds.16 mph82%29.71 "HgN/A
7:50 PM59 °FPassing clouds.17 mph82%29.71 "HgN/A
7:20 PM61 °FPassing clouds.18 mph77%29.71 "HgN/A
6:50 PM61 °FPassing clouds.17 mph72%29.71 "HgN/A
6:20 PM61 °FScattered showers. Passing clouds.22 mph77%29.71 "HgN/A
5:50 PM61 °FPassing clouds.20 mph77%29.71 "HgN/A
5:20 PM61 °FPassing clouds.21 mph77%29.68 "HgN/A
4:50 PM63 °FScattered clouds.18 mph73%29.68 "HgN/A
4:20 PM63 °FScattered clouds.18 mph73%29.68 "HgN/A
3:50 PM63 °FScattered clouds.20 mph73%29.68 "HgN/A
3:20 PM63 °FBroken clouds.17 mph73%29.68 "HgN/A
2:50 PM63 °FBroken clouds.18 mph77%29.68 "HgN/A
2:20 PM61 °FPartly sunny.18 mph83%29.68 "HgN/A
1:50 PM61 °FPartly sunny.18 mph88%29.68 "HgN/A
1:20 PM61 °FScattered showers. Broken clouds.18 mph94%29.68 "HgN/A
12:50 PM57 °FScattered showers. Broken clouds.17 mph100%29.68 "HgN/A
12:20 PM57 °FRain showers. Broken clouds.20 mph100%29.65 "HgN/A
11:50 AM57 °FRain showers. Broken clouds.17 mph100%29.65 "HgN/A
11:20 AM57 °FRain showers. Partly sunny.20 mph100%29.68 "Hg4 mi
10:50 AM57 °FSprinkles. Broken clouds.21 mph100%29.65 "Hg4 mi
10:20 AM55 °FLight rain. Fog.17 mph100%29.68 "Hg3 mi
9:50 AM55 °FDrizzle. Mostly cloudy.17 mph100%29.68 "Hg3 mi
9:20 AM54 °FPartly sunny.15 mph100%29.68 "HgN/A
8:50 AM54 °FSprinkles. Broken clouds.15 mph100%29.68 "Hg4 mi
8:20 AM54 °FSprinkles. Broken clouds.18 mph100%29.68 "Hg4 mi
7:50 AM54 °FSprinkles. Broken clouds.9 mph100%29.68 "Hg5 mi
7:20 AM57 °FSprinkles. Scattered clouds.12 mph100%29.68 "HgN/A
6:50 AM57 °FDrizzle. Broken clouds.12 mph100%29.68 "HgN/A
6:20 AM57 °FDrizzle. Broken clouds.13 mph100%29.68 "HgN/A
Weather by CustomWeather, © 2016

See weather overviewHow to use our weather pages